Change the Weather History Date:

Friday, December 17, 2010

  Actual Average Record
Temperature  
Mean Temperature 11 °F 15 °F  
Max Temperature 18 °F 25 °F 57 °F (1890)
Min Temperature 4 °F 5 °F -27 °F (1975)
Degree Days  
Heating Degree Days 54 50  
Month to date heating degree days 919 798  
Since 1 July heating degree days 2786 2784  
Cooling Degree Days 0 0  
Month to date cooling degree days 0 0  
Year to date cooling degree days 507 520  
Moisture  
Dew Point 6 °F    
Average Humidity 78    
Maximum Humidity 88    
Minimum Humidity 67    
Precipitation  
Precipitation T in 0.02 in 0.49 in (1967)
Month to date precipitation 0.85 0.26  
Year to date precipitation 22.63 17.62  
Snow  
Snow T in 0.30 in 5.80 in (1967)
Month to date snowfall 12.9 4.7  
Since 1 July snowfall 26.4 15.9  
Snow Depth 9.00 in    
Sea Level Pressure  
Sea Level Pressure 30.19 in    
Wind  
Wind Speed 12 mph (WNW)    
Max Wind Speed 22 mph    
Max Gust Speed 31 mph    
Visibility 10 miles    
Events      
T = Trace of Precipitation, MM = Missing Value Source: NWS Daily Summary

Daily Weather History Graph

Daily Weather History Graph

Search for Another Location

Airport or City:

Trip Planner

Search our weather history database for the weather conditions in past years. The results will help you decide how hot, cold, wet, or windy it might be!

Date:

Astronomy

Dec. 17, 2010 Rise Set
Actual Time 8:22 AM CST 4:55 PM CST
Civil Twilight 7:47 AM CST 5:31 PM CST
Nautical Twilight 7:08 AM CST 6:09 PM CST
Astronomical Twilight 6:31 AM CST 6:46 PM CST
Moon 2:06 PM CST (12/17) 4:38 AM CST (12/17)
Length of Visible Light 9h 43m
Length of Day
8h 33m
Waxing Gibbous, 86% of the Moon is Illuminated
Dec 17
Waxing Gibbous
Dec 21
Full
Dec 27
Last Quarter
Jan 4
New
Jan 12
First Quarter

Hourly Weather History & Observations

Time (CST) Temp. Windchill Dew Point Humidity Pressure Visibility Wind Dir Wind Speed Gust Speed Precip Events Conditions
12:08 AM 15.8 °F 7.2 °F 10.4 °F 79% 30.12 in 10.0 mi WNW 5.8 mph - N/A   Overcast
12:52 AM 16.0 °F 6.3 °F 12.0 °F 84% 30.22 in 10.0 mi WNW 6.9 mph - N/A   Overcast
1:18 AM 15.8 °F 6.1 °F 12.2 °F 86% 30.11 in 10.0 mi West 6.9 mph - N/A   Overcast
1:52 AM 16.0 °F 5.3 °F 9.0 °F 74% 30.21 in 10.0 mi West 8.1 mph - N/A   Overcast
2:34 AM 17.6 °F 5.7 °F 10.4 °F 73% 30.11 in 10.0 mi NW 10.4 mph - N/A   Overcast
2:52 AM 17.1 °F 1.5 °F 9.0 °F 71% 30.21 in 10.0 mi NW 17.3 mph 21.9 mph N/A   Mostly Cloudy
3:05 AM 15.8 °F -0.6 °F 10.4 °F 79% 30.12 in 10.0 mi NW 18.4 mph 25.3 mph N/A   Scattered Clouds
3:52 AM 14.0 °F 1.2 °F 9.0 °F 80% 30.22 in 10.0 mi WNW 10.4 mph 18.4 mph N/A   Clear
4:52 AM 12.0 °F -3.4 °F 8.1 °F 84% 30.22 in 10.0 mi WNW 13.8 mph - N/A   Clear
5:52 AM 12.0 °F -3.4 °F 6.1 °F 77% 30.22 in 10.0 mi WNW 13.8 mph - N/A   Partly Cloudy
6:52 AM 10.9 °F -3.4 °F 5.0 °F 77% 30.23 in 10.0 mi WNW 11.5 mph 19.6 mph N/A   Clear
7:52 AM 10.0 °F -5.9 °F 3.0 °F 73% 30.23 in 10.0 mi WNW 13.8 mph - N/A   Mostly Cloudy
8:52 AM 9.0 °F -6.6 °F 3.9 °F 80% 30.24 in 10.0 mi WNW 12.7 mph - N/A   Overcast
9:52 AM 10.9 °F -5.9 °F 5.0 °F 77% 30.23 in 10.0 mi WNW 16.1 mph - N/A   Overcast
10:52 AM 12.9 °F -2.8 °F 5.0 °F 71% 30.24 in 10.0 mi WNW 15.0 mph 25.3 mph N/A   Overcast
11:52 AM 14.0 °F -2.0 °F 6.1 °F 71% 30.23 in 10.0 mi WNW 16.1 mph - N/A   Overcast
12:52 PM 14.0 °F -2.0 °F 7.0 °F 74% 30.22 in 10.0 mi WNW 16.1 mph 26.5 mph N/A   Overcast
1:04 PM 14.0 °F -1.4 °F 6.8 °F 73% 30.11 in 10.0 mi NW 15.0 mph - N/A   Overcast
1:52 PM 14.0 °F -2.0 °F 7.0 °F 74% 30.22 in 10.0 mi WNW 16.1 mph - N/A   Overcast
2:52 PM 14.0 °F -2.0 °F 6.1 °F 71% 30.22 in 10.0 mi NW 16.1 mph 28.8 mph N/A   Mostly Cloudy
3:05 PM 14.0 °F -1.4 °F 6.8 °F 73% 30.11 in 10.0 mi WNW 15.0 mph 23.0 mph N/A   Scattered Clouds
3:52 PM 14.0 °F -0.2 °F 6.1 °F 71% 30.22 in 10.0 mi WNW 12.7 mph 19.6 mph N/A   Scattered Clouds
4:52 PM 12.9 °F -0.9 °F 6.1 °F 74% 30.22 in 10.0 mi WNW 11.5 mph - N/A   Mostly Cloudy
5:52 PM 12.0 °F -2.0 °F 6.1 °F 77% 30.21 in 10.0 mi NW 11.5 mph 19.6 mph N/A   Overcast
6:14 PM 12.2 °F -1.8 °F 6.8 °F 79% 30.10 in 10.0 mi WNW 11.5 mph - N/A   Mostly Cloudy
6:30 PM 10.4 °F -0.4 °F 5.0 °F 79% 30.10 in 10.0 mi West 6.9 mph - N/A   Mostly Cloudy
6:52 PM 10.9 °F 1.4 °F 5.0 °F 77% 30.22 in 10.0 mi West 5.8 mph - N/A   Overcast
7:52 PM 9.0 °F -5.9 °F 3.0 °F 77% 30.22 in 10.0 mi West 11.5 mph - N/A   Scattered Clouds
8:52 PM 6.1 °F -8.7 °F -0.0 °F 76% 30.21 in 10.0 mi West 10.4 mph - N/A   Clear
9:52 PM 5.0 °F -8.1 °F -0.0 °F 80% 30.21 in 10.0 mi West 8.1 mph - N/A   Clear
10:52 PM 5.0 °F -8.1 °F -0.9 °F 76% 30.21 in 10.0 mi West 8.1 mph - N/A   Clear
11:52 PM 6.1 °F -2.8 °F -0.0 °F 76% 30.20 in 10.0 mi WNW 4.6 mph - N/A   Overcast